Zurück zum Katalog

SL-8 DEB

LostLEO
NORAD 39692·DEBRIS·🇷🇺 Russia

Gestartet Feb 12, 1991 von Plesetsk Cosmodrome

Loading…

Nächste Überflüge (nächste 24 Stunden)

TLE

VeraltetSource: Space-Track

Epoche: May 14, 2025, 17:27 UTC

1 39692U 91009DF  25134.72774287  .00000525  00000-0  40208-2 0  9995
2 39692  74.0931 259.5369 0097005 202.1652 157.5187 12.39350746500608

Verfolge SL-8 DEB in Echtzeit mit AllMySat

Download on the App Store